DW6417 Weather Reports


Display with metric or nautical units.
time (UTC)temp
F
wind
direction
speed
MPH
gust
MPH
rain 1hr
in
rain 24hr
in
rain mn
in
humidity
%
barometer
mb
20260503040420 56 0 0.0 0.0 0.00 0.38 0.00 89 1009.2
20260503035920 56 0 0.0 0.0 0.00 0.38 0.00 90 1009.3
20260503035627 56 299 0.0 0.0 0.00 0.38 0.00 90 1009.3
20260503035422 56 0 0.0 0.0 0.00 0.38 0.00 90 1009.2
20260503034920 56 0 0.0 0.0 0.00 0.38 0.00 90 1009.2
20260503034628 56 300 0.0 0.0 0.00 0.38 0.00 89 1009.3
20260503034420 56 0 0.0 0.0 0.00 0.38 0.00 89 1009.2
20260503033921 56 0 0.0 0.0 0.00 0.38 0.00 89 1009.2
20260503033628 56 300 0.0 0.0 0.00 0.38 0.00 89 1009.4
20260503033420 56 0 0.0 0.0 0.00 0.38 0.00 89 1009.2
20260503032922 56 0 0.0 0.0 0.00 0.38 0.00 89 1009.3
20260503032628 56 300 0.0 0.0 0.00 0.38 0.00 89 1009.3
20260503032420 56 0 0.0 0.0 0.00 0.38 0.00 89 1009.3
20260503031420 57 0 0.0 0.0 0.00 0.38 0.00 89 1009.3
20260503030920 57 0 0.0 0.0 0.00 0.38 0.00 89 1009.5
20260503030627 57 300 0.0 0.0 0.00 0.38 0.00 89 1009.7
20260503030422 57 0 0.0 0.0 0.00 0.38 0.00 89 1009.6
20260503025921 57 0 0.0 0.0 0.00 0.38 0.00 89 1009.5
20260503025627 57 300 0.0 0.0 0.00 0.38 0.00 89 1009.8
20260503025420 57 0 0.0 0.0 0.00 0.38 0.00 89 1009.7
20260503023921 57 0 0.0 1.0 0.00 0.38 0.00 89 1009.8
20260503023627 58 300 0.0 1.0 0.00 0.38 0.00 89 1010.0
20260503023420 58 0 0.0 2.0 0.00 0.38 0.00 89 1009.9
20260503022628 58 300 0.0 1.0 0.00 0.38 0.00 89 1009.9
20260503022421 58 0 0.0 1.0 0.00 0.38 0.00 89 1009.8
20260503021920 58 0 0.0 1.0 0.00 0.38 0.00 89 1010.0
20260503021627 58 300 0.0 1.0 0.00 0.38 0.00 89 1010.1
20260503021420 58 0 0.0 1.0 0.00 0.38 0.00 89 1010.0
20260503020921 58 0 0.0 2.0 0.00 0.38 0.00 89 1010.0
20260503020627 58 300 0.0 1.0 0.00 0.38 0.00 89 1010.2
20260503020422 58 0 0.0 2.0 0.00 0.38 0.00 89 1010.0
20260503015921 58 0 0.0 2.0 0.00 0.38 0.00 89 1010.0
20260503015628 58 299 1.0 1.0 0.00 0.38 0.00 89 1010.2
20260503015421 58 0 0.0 2.0 0.00 0.38 0.00 89 1010.2
20260503014921 58 0 0.0 2.0 0.00 0.38 0.00 89 1010.2
20260503014629 58 300 0.0 0.0 0.00 0.38 0.00 89 1010.3
20260503014421 58 0 0.0 0.0 0.00 0.38 0.00 89 1010.3
20260503013628 58 300 0.0 0.0 0.00 0.38 0.00 89 1010.4
20260503012921 58 0 0.0 0.0 0.00 0.38 0.00 89 1010.4
20260503012628 58 299 0.0 0.0 0.00 0.38 0.00 89 1010.4
20260503011921 58 0 0.0 0.0 0.00 0.38 0.00 89 1010.3
20260503011628 58 300 0.0 0.0 0.00 0.38 0.00 89 1010.4
20260503011421 58 0 0.0 0.0 0.00 0.38 0.00 89 1010.3
20260503010921 58 0 0.0 0.0 0.00 0.38 0.00 89 1010.4
20260503010627 58 300 0.0 0.0 0.00 0.38 0.00 89 1010.6
20260503010421 58 0 0.0 0.0 0.00 0.38 0.00 89 1010.5
20260503005920 58 0 0.0 0.0 0.00 0.38 0.00 89 1010.6
20260503005628 58 300 0.0 0.0 0.00 0.38 0.00 89 1010.6
20260503005421 58 0 0.0 0.0 0.00 0.38 0.00 89 1010.6
20260503004921 58 0 0.0 0.0 0.00 0.38 0.00 89 1010.6
20260503004628 58 300 0.0 0.0 0.00 0.38 0.00 89 1010.7
20260503004420 58 0 0.0 0.0 0.00 0.38 0.00 89 1010.7
20260503003921 58 0 0.0 1.0 0.00 0.38 0.00 89 1010.7
20260503003628 58 300 0.0 1.0 0.00 0.38 0.00 89 1010.7
20260503003423 58 0 0.0 1.0 0.00 0.38 0.00 89 1010.7
20260503002921 59 0 0.0 2.0 0.00 0.38 0.00 89 1010.7
20260503002628 59 300 0.0 2.0 0.00 0.38 0.00 89 1010.8
20260503002421 59 0 0.0 2.0 0.00 0.38 0.00 89 1010.7
20260503001921 59 0 0.0 2.0 0.00 0.38 0.00 89 1010.8
20260503001627 59 300 0.0 1.0 0.00 0.38 0.00 89 1010.9
20260503001421 59 0 0.0 1.0 0.00 0.38 0.00 89 1010.8
20260503000628 59 299 0.0 1.0 0.00 0.38 0.00 89 1011.2
20260503000422 59 0 0.0 1.0 0.00 0.38 0.00 89 1011.1
20260502235921 59 0 0.0 2.0 0.00 0.38 0.00 89 1011.2
20260502235628 59 300 0.0 2.0 0.00 0.38 0.00 89 1011.3
20260502235421 59 0 0.0 2.0 0.00 0.38 0.00 89 1011.2
20260502234921 59 0 0.0 2.0 0.00 0.38 0.00 89 1011.3
20260502234421 59 299 1.0 2.0 0.00 0.38 0.00 89 1011.3
20260502233921 59 299 1.0 3.0 0.00 0.38 0.00 89 1011.4
20260502233628 59 300 1.0 3.0 0.00 0.38 0.00 89 1011.6
20260502233422 59 299 1.0 3.0 0.00 0.38 0.00 89 1011.5
20260502232921 59 299 1.0 3.0 0.00 0.38 0.00 89 1011.6
20260502232628 59 300 0.0 3.0 0.00 0.38 0.00 89 1011.8
20260502232421 59 0 0.0 3.0 0.00 0.38 0.00 89 1011.7
20260502231628 59 300 0.0 0.0 0.00 0.38 0.00 89 1011.9
20260502231421 59 0 0.0 3.0 0.00 0.38 0.00 89 1011.8
20260502230921 59 0 0.0 3.0 0.00 0.38 0.00 89 1011.8
20260502230628 59 300 0.0 0.0 0.00 0.38 0.00 89 1012.1
20260502230421 59 0 0.0 0.0 0.00 0.38 0.00 89 1012.0
20260502225936 59 0 0.0 0.0 0.00 0.38 0.00 89 1012.1
20260502225628 59 300 0.0 0.0 0.00 0.38 0.00 88 1012.3
20260502225421 59 0 0.0 0.0 0.00 0.38 0.00 88 1012.2
20260502224921 59 0 0.0 1.0 0.00 0.38 0.00 88 1012.3
20260502224628 59 300 0.0 1.0 0.00 0.38 0.00 89 1012.4
20260502223921 59 300 2.0 7.0 0.00 0.38 0.00 88 1012.4
20260502223628 59 300 3.0 7.0 0.00 0.38 0.00 89 1012.7
20260502223421 59 286 3.0 7.0 0.00 0.38 0.00 89 1012.5
20260502222921 59 289 4.0 11.0 0.00 0.38 0.00 89 1012.5
20260502222628 59 253 5.0 11.0 0.00 0.38 0.00 89 1012.6
20260502222420 59 300 3.0 11.0 0.00 0.38 0.00 89 1012.6
20260502221921 59 300 4.0 11.0 0.00 0.38 0.00 89 1012.3
20260502221629 59 188 1.0 4.0 0.00 0.38 0.00 89 1012.4
20260502220921 59 185 2.0 5.0 0.00 0.38 0.00 89 1012.3
20260502220628 60 184 2.0 5.0 0.00 0.38 0.00 89 1011.9
20260502220421 60 184 2.0 5.0 0.00 0.38 0.00 89 1011.8
20260502215923 60 184 1.0 5.0 0.00 0.38 0.00 89 1011.7
20260502215628 60 184 1.0 5.0 0.00 0.38 0.38 89 1011.8
20260502215421 60 184 1.0 5.0 0.00 0.38 0.38 89 1011.7
20260502214921 60 184 1.0 4.0 0.00 0.38 0.38 89 1011.8
20260502214628 60 184 0.0 1.0 0.00 0.38 0.38 89 1011.8
20260502214421 60 0 0.0 1.0 0.00 0.38 0.38 89 1011.7
20260502213921 60 0 0.0 1.0 0.00 0.38 0.38 89 1011.6
20260502213628 60 184 0.0 0.0 0.00 0.38 0.38 89 1011.4
20260502213421 60 0 0.0 1.0 0.00 0.38 0.38 89 1011.5
20260502212921 60 0 0.0 0.0 0.00 0.38 0.38 89 1011.4
20260502212628 60 184 0.0 0.0 0.01 0.38 0.38 89 1011.4
20260502212421 60 0 0.0 0.0 0.01 0.38 0.38 89 1011.4
20260502211921 60 0 0.0 1.0 0.01 0.38 0.38 89 1011.4
20260502211628 60 184 0.0 1.0 0.01 0.38 0.38 89 1011.5
20260502211421 60 0 0.0 3.0 0.01 0.38 0.38 89 1011.5
20260502210921 60 184 1.0 5.0 0.01 0.38 0.38 88 1011.5
20260502210629 60 184 2.0 5.0 0.01 0.38 0.38 88 1011.7
20260502210421 60 184 1.0 5.0 0.01 0.38 0.38 88 1011.7
20260502205422 60 184 1.0 3.0 0.02 0.38 0.38 88 1011.8
20260502204921 60 0 0.0 3.0 0.02 0.38 0.38 88 1011.8
20260502204628 60 184 0.0 1.0 0.02 0.38 0.38 88 1011.7
20260502204421 60 0 0.0 1.0 0.02 0.38 0.38 88 1011.7
20260502203921 60 185 1.0 5.0 0.02 0.38 0.38 88 1011.8
20260502203628 61 184 2.0 5.0 0.02 0.38 0.38 88 1011.6
20260502203422 61 185 1.0 5.0 0.02 0.38 0.38 88 1011.6
20260502202921 61 186 1.0 4.0 0.02 0.38 0.38 87 1011.7
20260502202628 61 185 1.0 4.0 0.02 0.37 0.37 88 1011.8
20260502201921 61 186 2.0 4.0 0.02 0.37 0.37 87 1012.1
20260502201628 61 185 1.0 4.0 0.02 0.37 0.37 87 1012.3
20260502201421 61 186 2.0 4.0 0.02 0.37 0.37 87 1012.1
20260502200921 61 186 1.0 5.0 0.02 0.37 0.37 87 1012.3
20260502200628 61 185 1.0 5.0 0.02 0.37 0.37 86 1012.4
20260502200421 61 186 1.0 5.0 0.02 0.37 0.37 86 1012.4
20260502195921 61 187 2.0 5.0 0.02 0.37 0.37 86 1012.5
20260502195628 61 186 2.0 5.0 0.02 0.36 0.36 86 1012.4
20260502195421 61 189 2.0 5.0 0.02 0.36 0.36 86 1012.4
20260502194921 61 190 1.0 5.0 0.01 0.35 0.35 86 1012.7
20260502194628 61 190 1.0 3.0 0.01 0.35 0.35 85 1012.9
20260502194421 61 191 1.0 5.0 0.01 0.35 0.35 85 1012.9
20260502193921 61 190 1.0 3.0 0.01 0.35 0.35 84 1013.0
20260502192921 61 192 2.0 6.0 0.08 0.35 0.35 84 1013.2
20260502192421 61 192 1.0 4.0 0.14 0.35 0.35 85 1013.4
20260502191628 62 192 0.0 2.0 0.14 0.35 0.35 84 1013.2
20260502190921 62 190 1.0 6.0 0.14 0.35 0.35 83 1013.1
20260502190628 62 192 1.0 6.0 0.14 0.35 0.35 83 1013.0
20260502190421 62 170 2.0 6.0 0.14 0.35 0.35 83 1013.0
20260502185628 62 159 2.0 6.0 0.14 0.35 0.35 82 1012.9
20260502185421 62 159 2.0 6.0 0.14 0.35 0.35 82 1013.0
20260502184921 63 145 2.0 10.0 0.15 0.35 0.35 82 1013.0
20260502184628 63 138 3.0 10.0 0.17 0.35 0.35 81 1012.8
20260502184421 63 140 3.0 10.0 0.17 0.35 0.35 81 1012.9
20260502183921 64 149 3.0 10.0 0.20 0.35 0.35 81 1012.7
20260502183628 65 163 3.0 10.0 0.22 0.35 0.35 83 1012.8
20260502183421 65 170 3.0 10.0 0.22 0.35 0.35 83 1012.8
20260502182921 65 185 2.0 9.0 0.17 0.28 0.28 84 1012.9
20260502182420 66 199 2.0 7.0 0.17 0.20 0.20 85 1012.9
20260502181921 66 254 2.0 5.0 0.20 0.20 0.20 84 1012.7
20260502181421 66 333 2.0 3.0 0.20 0.20 0.20 83 1012.6
20260502180921 67 330 2.0 5.0 0.20 0.20 0.20 83 1012.2
20260502180628 67 338 3.0 5.0 0.20 0.20 0.20 83 1012.1
20260502180421 67 221 2.0 5.0 0.20 0.20 0.20 83 1012.1
20260502170421 75 135 2.0 6.0 0.00 0.00 0.00 60 1011.6
20260502163921 75 198 1.0 5.0 0.00 0.00 0.00 57 1012.2
20260502163628 75 196 2.0 5.0 0.00 0.00 0.00 56 1012.3
20260502162921 75 200 1.0 3.0 0.00 0.00 0.00 55 1012.3
20260502162421 76 201 1.0 3.0 0.00 0.00 0.00 54 1012.4
20260502161921 76 201 1.0 3.0 0.00 0.00 0.00 52 1012.5
20260502161628 76 201 1.0 3.0 0.00 0.00 0.00 49 1012.5
20260502160921 76 200 2.0 4.0 0.00 0.00 0.00 51 1012.6
20260502160628 76 199 2.0 4.0 0.00 0.00 0.00 51 1012.5
20260502160421 76 201 2.0 4.0 0.00 0.00 0.00 51 1012.6
20260502151921 76 185 1.0 5.0 0.00 0.00 0.00 54 1013.1
20260502151629 76 180 1.0 4.0 0.00 0.00 0.00 53 1013.1
20260502151422 76 197 1.0 4.0 0.00 0.00 0.00 53 1013.1
20260502150628 76 201 1.0 4.0 0.00 0.00 0.00 54 1013.4
20260502150421 76 201 1.0 4.0 0.00 0.00 0.00 54 1013.4
20260502130628 80 252 5.0 11.0 0.00 0.00 0.00 47 1014.7
20260502130421 80 264 4.0 12.0 0.00 0.00 0.00 47 1014.7
20260502123628 79 221 4.0 9.0 0.00 0.00 0.00 47 1015.2
20260502123422 79 203 4.0 9.0 0.00 0.00 0.00 47 1015.2
20260502122921 80 204 5.0 10.0 0.00 0.00 0.00 46 1015.3
20260502122422 80 204 4.0 10.0 0.00 0.00 0.00 46 1015.2
20260502121921 80 244 5.0 15.0 0.00 0.00 0.00 48 1015.3
20260502121629 80 301 6.0 15.0 0.00 0.00 0.00 46 1015.4
20260502121421 80 239 6.0 15.0 0.00 0.00 0.00 46 1015.4
20260502120921 79 202 5.0 10.0 0.00 0.00 0.00 47 1015.3
20260502120628 79 124 4.0 9.0 0.00 0.00 0.00 47 1015.3
20260502120422 79 195 4.0 10.0 0.00 0.00 0.00 47 1015.4
20260502115628 79 195 3.0 7.0 0.00 0.00 0.00 48 1015.6
20260502114921 79 203 4.0 11.0 0.00 0.00 0.00 48 1015.7
20260502114628 78 236 4.0 11.0 0.00 0.00 0.00 49 1015.7
20260502114421 78 184 4.0 11.0 0.00 0.00 0.00 49 1015.7
20260502113922 78 186 4.0 9.0 0.00 0.00 0.00 49 1015.8
20260502113628 78 178 3.0 9.0 0.00 0.00 0.00 50 1015.9
20260502113421 78 209 3.0 9.0 0.00 0.00 0.00 50 1015.9
20260502112921 78 221 3.0 8.0 0.00 0.00 0.00 50 1015.9
20260502112630 77 225 3.0 8.0 0.00 0.00 0.00 51 1015.9
20260502112421 77 234 4.0 9.0 0.00 0.00 0.00 51 1015.9
20260502111921 77 210 5.0 13.0 0.00 0.00 0.00 51 1015.9
20260502111421 76 213 5.0 13.0 0.00 0.00 0.00 50 1015.9
20260502110921 76 218 5.0 10.0 0.00 0.00 0.00 50 1016.0
20260502110628 76 215 5.0 10.0 0.00 0.00 0.00 50 1016.1
20260502110421 76 208 6.0 15.0 0.00 0.00 0.00 50 1016.1
20260502105921 76 230 6.0 15.0 0.00 0.00 0.00 49 1016.2
20260502105628 76 263 5.0 13.0 0.00 0.00 0.00 50 1016.2
20260502105421 76 234 4.0 13.0 0.00 0.00 0.00 50 1016.2
20260502104922 76 238 5.0 12.0 0.00 0.00 0.00 49 1016.5
20260502104628 76 210 5.0 12.0 0.00 0.00 0.00 51 1016.4
20260502104421 76 237 4.0 12.0 0.00 0.00 0.00 51 1016.4
20260502103921 75 234 4.0 10.0 0.00 0.00 0.00 49 1016.4
20260502103628 75 253 4.0 10.0 0.00 0.00 0.00 50 1016.4
20260502103421 75 225 4.0 10.0 0.00 0.00 0.00 50 1016.4
20260502102921 75 206 4.0 9.0 0.00 0.00 0.00 49 1016.5
20260502102628 75 211 3.0 9.0 0.00 0.00 0.00 50 1016.6
20260502102421 75 222 4.0 11.0 0.00 0.00 0.00 50 1016.5
20260502101628 74 248 4.0 7.0 0.00 0.00 0.00 50 1016.8
20260502100922 74 246 3.0 7.0 0.00 0.00 0.00 50 1016.8
20260502100628 74 249 3.0 6.0 0.00 0.00 0.00 53 1016.8
20260502090921 70 178 3.0 7.0 0.00 0.00 0.00 53 1017.1
20260502071421 63 173 2.0 6.0 0.00 0.00 0.00 54 1017.4
20260502070922 62 164 1.0 3.0 0.00 0.00 0.00 56 1017.5
20260502070628 61 164 1.0 3.0 0.00 0.00 0.00 58 1017.4
20260502065922 61 163 1.0 4.0 0.00 0.00 0.00 59 1017.4
20260502065628 60 163 2.0 4.0 0.00 0.00 0.00 60 1017.4
20260502065421 60 163 1.0 4.0 0.00 0.00 0.00 60 1017.5
20260502064923 60 162 1.0 3.0 0.00 0.00 0.00 60 1017.5
20260502064628 59 163 0.0 2.0 0.00 0.00 0.00 61 1017.4
20260502064421 59 163 1.0 2.0 0.00 0.00 0.00 61 1017.4
20260502063422 58 163 1.0 3.0 0.00 0.00 0.00 64 1017.4
20260502062628 57 163 0.0 1.0 0.00 0.00 0.00 64 1017.3
20260502062422 57 163 1.0 3.0 0.00 0.00 0.00 64 1017.3
20260502061921 57 163 1.0 3.0 0.00 0.00 0.00 65 1017.4
20260502061422 56 162 1.0 3.0 0.00 0.00 0.00 66 1017.5
20260502060922 56 162 1.0 3.0 0.00 0.00 0.00 67 1017.4
20260502060628 55 163 1.0 3.0 0.00 0.00 0.00 68 1017.4
20260502060422 55 163 1.0 3.0 0.00 0.00 0.00 68 1017.5
20260502055923 55 163 1.0 3.0 0.00 0.00 0.00 68 1017.4
20260502055421 54 0 0.0 2.0 0.00 0.00 0.00 70 1017.2
20260502054422 51 0 0.0 1.0 0.00 0.00 0.00 73 1017.0
20260502053923 50 0 0.0 2.0 0.00 0.00 0.00 74 1017.1
20260502053628 49 163 1.0 2.0 0.00 0.00 0.00 76 1017.2
20260502053422 49 0 0.0 2.0 0.00 0.00 0.00 76 1017.2
20260502052922 49 0 0.0 1.0 0.00 0.00 0.00 75 1017.3
20260502052424 48 0 0.0 1.0 0.00 0.00 0.00 76 1017.2
20260502051922 47 0 0.0 0.0 0.00 0.00 0.00 76 1017.2
20260502051628 47 163 0.0 0.0 0.00 0.00 0.00 77 1017.2
20260502051423 47 0 0.0 1.0 0.00 0.00 0.00 77 1017.2
20260502050628 46 163 0.0 1.0 0.00 0.00 0.00 80 1017.0
20260502045922 45 0 0.0 0.0 0.00 0.00 0.00 79 1017.1
20260502045628 45 163 0.0 0.0 0.00 0.00 0.00 79 1017.2
20260502044628 45 163 0.0 1.0 0.00 0.00 0.00 79 1017.2
20260502044422 45 0 0.0 1.0 0.00 0.00 0.00 79 1017.2
20260502043922 44 0 0.0 1.0 0.00 0.00 0.00 79 1017.2
20260502043628 44 163 0.0 0.0 0.00 0.00 0.00 79 1017.2
20260502043421 44 0 0.0 0.0 0.00 0.00 0.00 79 1017.3
20260502042922 44 0 0.0 1.0 0.00 0.00 0.00 79 1017.3
20260502042629 44 163 0.0 1.0 0.00 0.00 0.00 79 1017.2
20260502042422 44 0 0.0 1.0 0.00 0.00 0.00 79 1017.3
20260502041921 44 0 0.0 0.0 0.00 0.00 0.00 79 1017.3
20260502041628 44 163 0.0 0.0 0.00 0.00 0.00 79 1017.4
20260502041422 44 0 0.0 0.0 0.00 0.00 0.00 79 1017.4
20260502040921 44 0 0.0 0.0 0.00 0.00 0.00 79 1017.4
20260502040628 44 163 0.0 0.0 0.00 0.00 0.00 78 1017.4